Location: Carrizal
(9.8472°N, 67.3428°W)
Time: 00:34:49
(UTC+00:00)

Hubble Space Telescope - Visible Passes

Search period start: 20 June 2024 00:00
Search period end: 30 June 2024 00:00
Orbit: 510 x 514 km, 28.5° (Epoch: 19 June)

Date Brightness Start Highest point End Pass type
(mag) Time Alt. Az. Time Alt. Az. Time Alt. Az.
20 Jun 2.6 08:15:19 22° SE 08:15:19 22° SE 08:17:35 10° E visible
21 Jun 3.1 07:57:21 18° E 07:57:21 18° E 07:58:42 10° E visible
21 Jun 1.5 09:32:09 11° W 09:35:43 40° NNW 09:39:28 10° NE visible
22 Jun 3.7 07:39:20 13° E 07:39:20 13° E 07:39:46 10° E visible
22 Jun 1.8 09:14:08 17° W 09:16:38 34° NNW 09:20:15 10° NE visible
23 Jun 2.1 08:56:04 22° WNW 08:57:34 28° NNW 09:01:02 10° NE visible
24 Jun 2.2 08:37:57 24° NW 08:38:29 24° NNW 08:41:46 10° NNE visible
25 Jun 2.6 08:19:47 21° NNW 08:19:47 21° NNW 08:22:28 10° NNE visible
26 Jun 3.2 08:01:35 16° N 08:01:35 16° N 08:03:07 10° NNE visible
27 Jun 3.7 07:43:22 11° NNE 07:43:22 11° NNE 07:43:45 10° NNE visible
